Dennison, MN

6:44 AM CST on February 27, 2017 (GMT -0600)
Stanton

Weather History for KSYN - March, 2013

Change the Weather History Date:

Tuesday, March 5, 2013

  Actual Average (KLVN) Record (KLVN)
Temperature  
Mean Temperature 24 °F -  
Max Temperature 29 °F 34 °F 58 °F (1983)
Min Temperature 19 °F 17 °F -14 °F (2015)
Degree Days  
Heating Degree Days 41    
Moisture  
Dew Point 22 °F    
Average Humidity 85    
Maximum Humidity 92    
Minimum Humidity 78    
Precipitation  
Precipitation 0.02 in - - ()
Sea Level Pressure  
Sea Level Pressure 30.06 in    
Wind  
Wind Speed 7 mph (NNE)    
Max Wind Speed 15 mph    
Max Gust Speed -    
Visibility 4 miles    
Events Snow    
Averages and records for this station are not official NWS values.
T = Trace of Precipitation, MM = Missing Value Source: NWS Daily Summary

Daily Weather History Graph

Daily Weather History Graph

Search for Another Location

Airport or City:

Trip Planner

Search our weather history database for the weather conditions in past years. The results will help you decide how hot, cold, wet, or windy it might be!

Date:

Astronomy

Mar. 05, 2013 Rise Set
Actual Time 6:41 AM CST 6:05 PM CST
Civil Twilight 6:12 AM CST 6:34 PM CST
Nautical Twilight 5:39 AM CST 7:08 PM CST
Astronomical Twilight 5:05 AM CST 7:42 PM CST
Moon 2:05 AM CST (3/5) 11:34 AM CST (3/5)
Length of Visible Light 12h 21m
Length of Day
11h 23m
Last Quarter, 40% of the Moon is Illuminated
Mar 5
Last Quarter
Mar 11
New
Mar 19
First Quarter
Mar 27
Full
Apr 2
Last Quarter

Hourly Weather History & Observations

Time (CST) Temp. Windchill Dew Point Humidity Pressure Visibility Wind Dir Wind Speed Gust Speed Precip Events Conditions
12:13 AM 25.7 °F 18.0 °F 23.0 °F 89% 29.97 in 1.2 mi East 6.9 mph - N/A Snow Light Snow
12:33 AM 25.7 °F 18.0 °F 23.0 °F 89% 29.96 in 2.0 mi East 6.9 mph - N/A Snow Light Snow
12:52 AM 25.7 °F 19.0 °F 23.0 °F 89% 29.96 in 5.0 mi East 5.8 mph - N/A Snow Light Snow
1:13 AM 25.7 °F 21.5 °F 23.0 °F 89% 29.96 in 3.0 mi ENE 3.5 mph - N/A Snow Light Snow
1:33 AM 25.9 °F 21.7 °F 23.0 °F 89% 29.96 in 1.5 mi East 3.5 mph - N/A Snow Light Snow
1:52 AM 26.1 °F 21.9 °F 23.4 °F 90% 29.96 in 1.2 mi ENE 3.5 mph - N/A Snow Light Snow
2:13 AM 26.1 °F 20.5 °F 23.5 °F 90% 29.95 in 1.2 mi ENE 4.6 mph - N/A Snow Light Snow
2:33 AM 26.1 °F - 23.5 °F 90% 29.95 in 1.8 mi Calm Calm - N/A Snow Light Snow
2:52 AM 25.7 °F 21.5 °F 23.5 °F 92% 29.95 in 1.5 mi ENE 3.5 mph - N/A Snow Light Snow
3:13 AM 26.1 °F 19.4 °F 23.7 °F 91% 29.95 in 1.5 mi East 5.8 mph - N/A Snow Light Snow
3:33 AM 26.4 °F 19.8 °F 23.9 °F 90% 29.94 in 1.2 mi East 5.8 mph - N/A Snow Light Snow
3:52 AM 26.4 °F 19.8 °F 23.7 °F 90% 29.94 in 1.0 mi East 5.8 mph - N/A Snow Light Snow
4:13 AM 26.4 °F 19.8 °F 23.7 °F 90% 29.95 in 1.0 mi East 5.8 mph - N/A Snow Snow
4:52 AM 26.2 °F 20.7 °F 23.7 °F 90% 29.95 in 1.2 mi East 4.6 mph - N/A Snow Snow
5:13 AM 26.2 °F 18.6 °F 23.5 °F 90% 29.95 in 1.2 mi East 6.9 mph - N/A Snow Light Snow
5:53 AM 25.9 °F 18.2 °F 23.2 °F 90% 29.95 in 1.5 mi East 6.9 mph - N/A Snow Light Snow
6:13 AM 26.1 °F 18.4 °F 23.2 °F 89% 29.95 in 1.8 mi East 6.9 mph - N/A Snow Light Snow
6:52 AM 25.7 °F 17.1 °F 23.0 °F 89% 29.96 in 0.8 mi East 8.1 mph - N/A Snow Light Snow
7:13 AM 25.7 °F 18.0 °F 23.0 °F 89% 29.96 in 1.0 mi East 6.9 mph - N/A Snow Light Snow
7:32 AM 25.7 °F 19.0 °F 23.0 °F 89% 29.96 in 0.8 mi ENE 5.8 mph - N/A Snow Light Snow
7:52 AM 25.7 °F 19.0 °F 23.0 °F 89% 29.97 in 0.8 mi ENE 5.8 mph - N/A Snow Light Snow
8:13 AM 26.1 °F 19.4 °F 23.0 °F 88% 29.97 in 1.0 mi ENE 5.8 mph - N/A Snow Light Snow
8:32 AM 26.1 °F 19.4 °F 23.0 °F 88% 29.97 in 1.0 mi ENE 5.8 mph - N/A Snow Light Snow
8:53 AM 26.4 °F 20.9 °F 23.0 °F 87% 29.98 in 1.2 mi ENE 4.6 mph - N/A Snow Light Snow
9:13 AM 26.6 °F 18.2 °F 23.0 °F 86% 29.98 in 1.8 mi ENE 8.1 mph - N/A Snow Light Snow
9:32 AM 26.6 °F 17.5 °F 22.8 °F 86% 29.98 in 2.0 mi ENE 9.2 mph - N/A Snow Light Snow
9:53 AM 27.0 °F 18.7 °F 22.5 °F 83% 29.99 in 2.0 mi ENE 8.1 mph - N/A Snow Light Snow
10:13 AM 26.6 °F 17.5 °F 22.6 °F 85% 29.99 in 3.0 mi NNE 9.2 mph - N/A Snow Light Snow
10:32 AM 26.6 °F 16.8 °F 22.8 °F 86% 30.00 in 1.2 mi NNE 10.4 mph - N/A Snow Light Snow
10:52 AM 26.6 °F 16.8 °F 22.6 °F 85% 30.00 in 1.2 mi NNE 10.4 mph - N/A Snow Light Snow
11:13 AM 26.6 °F 17.5 °F 22.6 °F 85% 30.01 in 0.8 mi NNE 9.2 mph - N/A Snow Light Snow
11:32 AM 26.8 °F 17.1 °F 22.5 °F 84% 30.02 in 2.0 mi NNE 10.4 mph - N/A Snow Light Snow
11:52 AM 27.3 °F 17.7 °F 23.0 °F 84% 30.02 in 1.0 mi NNE 10.4 mph - N/A Snow Light Snow
12:13 PM 27.5 °F 17.4 °F 23.0 °F 83% 30.02 in 0.8 mi NNE 11.5 mph - N/A Snow Light Snow
12:32 PM 28.0 °F 17.5 °F 23.4 °F 83% 30.02 in 1.5 mi NNE 12.7 mph - N/A Snow Light Snow
12:52 PM 28.0 °F 18.1 °F 23.0 °F 81% 30.02 in 2.0 mi NNE 11.5 mph - N/A Snow Light Snow
1:13 PM 28.4 °F 18.0 °F 23.2 °F 81% 30.03 in 2.5 mi NNE 12.7 mph - 0.01 in Snow Light Snow
1:32 PM 28.4 °F 19.1 °F 23.5 °F 82% 30.03 in 2.5 mi North 10.4 mph - 0.01 in Snow Light Snow
1:52 PM 28.9 °F 18.6 °F 23.5 °F 80% 30.03 in 2.5 mi North 12.7 mph - 0.02 in Snow Light Snow
2:13 PM 28.9 °F 18.6 °F 23.5 °F 80% 30.03 in 3.0 mi North 12.7 mph - N/A Snow Light Snow
2:33 PM 29.1 °F 17.9 °F 23.7 °F 80% 30.04 in 3.0 mi North 15.0 mph - N/A   Haze
2:52 PM 29.1 °F 18.9 °F 23.7 °F 80% 30.05 in 3.0 mi North 12.7 mph - N/A   Haze
3:13 PM 29.1 °F 20.0 °F 23.2 °F 78% 30.06 in 5.0 mi North 10.4 mph - N/A   Haze
3:33 PM 29.3 °F 20.2 °F 23.9 °F 80% 30.07 in 7.0 mi North 10.4 mph - N/A Snow Light Snow
3:52 PM 29.3 °F 18.6 °F 23.5 °F 79% 30.08 in 7.0 mi North 13.8 mph - N/A   Overcast
4:13 PM 28.9 °F 18.6 °F 23.2 °F 79% 30.10 in 4.0 mi North 12.7 mph - N/A Snow Light Snow
4:33 PM 28.6 °F 20.7 °F 23.0 °F 80% 30.11 in 2.5 mi North 8.1 mph - N/A Snow Light Snow
4:52 PM 28.4 °F 19.1 °F 23.0 °F 80% 30.12 in 4.0 mi NNE 10.4 mph - N/A Snow Light Snow
5:13 PM 28.0 °F 18.1 °F 23.5 °F 83% 30.13 in 2.0 mi North 11.5 mph - N/A Snow Light Snow
5:33 PM 28.0 °F 18.6 °F 23.9 °F 84% 30.14 in 2.0 mi North 10.4 mph - N/A Snow Light Snow
5:52 PM 27.9 °F 18.4 °F 23.9 °F 85% 30.15 in 4.0 mi North 10.4 mph - N/A Snow Light Snow
6:13 PM 27.5 °F 18.6 °F 23.0 °F 83% 30.16 in 4.0 mi North 9.2 mph - N/A Snow Light Snow
6:32 PM 27.0 °F 18.0 °F 22.1 °F 82% 30.17 in 7.0 mi North 9.2 mph - N/A Snow Light Snow
6:53 PM 23.7 °F 14.7 °F 19.2 °F 83% 30.18 in 10.0 mi North 8.1 mph - N/A   Mostly Cloudy
7:13 PM 24.6 °F 15.8 °F 19.6 °F 81% 30.18 in 10.0 mi NNW 8.1 mph - N/A   Mostly Cloudy
7:32 PM 22.3 °F 13.9 °F 18.3 °F 85% 30.18 in 10.0 mi North 6.9 mph - N/A   Scattered Clouds
7:53 PM 22.3 °F 12.2 °F 18.9 °F 87% 30.19 in 10.0 mi NNW 9.2 mph - N/A   Scattered Clouds
8:13 PM 23.5 °F 14.5 °F 19.4 °F 84% 30.19 in 10.0 mi NNW 8.1 mph - N/A Snow Light Snow
8:32 PM 22.5 °F 15.1 °F 18.5 °F 85% 30.19 in 10.0 mi NNW 5.8 mph - N/A   Mostly Cloudy
8:53 PM 19.2 °F 9.3 °F 16.0 °F 87% 30.20 in 10.0 mi NW 8.1 mph - N/A   Scattered Clouds
9:13 PM 23.7 °F 14.7 °F 20.5 °F 87% 30.21 in 10.0 mi NW 8.1 mph - N/A   Overcast
9:32 PM 25.2 °F 16.5 °F 21.2 °F 85% 30.21 in 10.0 mi NNW 8.1 mph - N/A   Overcast
9:53 PM 26.2 °F 17.1 °F 22.1 °F 84% 30.23 in 10.0 mi NW 9.2 mph - N/A   Overcast
10:13 PM 26.4 °F 18.0 °F 22.6 °F 86% 30.23 in 10.0 mi NNW 8.1 mph - N/A   Overcast
10:32 PM 26.2 °F 14.7 °F 21.2 °F 81% 30.23 in 10.0 mi North 13.8 mph - N/A   Overcast
10:53 PM 25.3 °F 14.1 °F 20.7 °F 82% 30.23 in 10.0 mi NNE 12.7 mph - N/A   Overcast
11:13 PM 24.6 °F 12.7 °F 19.4 °F 81% 30.24 in 10.0 mi North 13.8 mph - N/A   Overcast
11:32 PM 24.6 °F 13.8 °F 18.7 °F 78% 30.25 in 10.0 mi North 11.5 mph - N/A   Overcast
11:53 PM 24.6 °F 14.4 °F 18.5 °F 78% 30.26 in 10.0 mi North 10.4 mph - N/A   Overcast